FW1790 Weather Reports


Display with metric or nautical units.
time (UTC)temp
F
wind
direction
speed
MPH
gust
MPH
rain 1hr
in
rain 24hr
in
rain mn
in
humidity
%
barometer
mb
20211019082515 38 160 4.0 8.0 0.04 0.44 0.06 93 1004.5
20211019082114 39 166 6.0 11.0 0.03 0.43 0.05 92 1004.7
20211019081524 39 160 4.0 6.0 0.03 0.42 0.05 93 1005.1
20211019081030 39 165 5.0 8.0 0.02 0.42 0.04 93 1005.4
20211019080515 39 177 8.0 13.0 0.02 0.42 0.04 92 1005.9
20211019080033 40 167 4.0 7.0 0.02 0.41 0.04 91 1006.0
20211019075513 40 177 7.0 12.0 0.01 0.41 0.03 88 1006.0
20211019075017 41 178 7.0 12.0 0.01 0.40 0.03 87 1006.0
20211019074517 41 178 5.0 9.0 0.01 0.40 0.03 86 1006.1
20211019074045 41 199 4.0 7.0 0.01 0.40 0.02 86 1006.3
20211019073514 41 151 3.0 5.0 0.01 0.40 0.02 85 1006.4
20211019073027 41 163 4.0 5.0 0.01 0.40 0.02 86 1006.7
20211019072615 41 131 2.0 2.0 0.01 0.40 0.02 87 1006.9
20211019072016 41 172 3.0 4.0 0.02 0.40 0.02 86 1007.1
20211019071515 42 130 2.0 3.0 0.02 0.40 0.02 88 1007.3
20211019071015 42 95 2.0 5.0 0.02 0.40 0.02 87 1007.5
20211019070512 42 123 3.0 4.0 0.02 0.40 0.02 86 1007.8
20211019070026 42 94 3.0 4.0 0.02 0.40 0.02 88 1008.0
20211019065514 42 82 2.0 3.0 0.02 0.40 0.02 87 1008.4
20211019065016 42 149 2.0 4.0 0.02 0.40 0.02 85 1008.6
20211019064517 43 136 1.0 2.0 0.02 0.40 0.02 88 1008.8
20211019064015 43 143 2.0 3.0 0.02 0.39 0.02 87 1009.2
20211019063513 43 129 3.0 5.0 0.02 0.39 0.02 88 1009.5
20211019063025 43 134 4.0 6.0 0.02 0.39 0.02 88 1009.8
20211019062513 43 107 3.0 5.0 0.02 0.39 0.02 90 1010.1
20211019062016 44 130 3.0 5.0 0.01 0.39 0.01 87 1010.4
20211019061517 44 151 7.0 9.0 0.01 0.38 0.01 85 1010.4
20211019061046 44 157 5.0 8.0 0.00 0.38 0.00 85 1010.4
20211019060545 44 146 3.0 5.0 0.00 0.38 0.00 85 1010.6
20211019060030 44 162 6.0 9.0 0.00 0.38 0.38 85 1010.6
20211019055513 44 158 5.0 9.0 0.00 0.38 0.38 86 1010.7
20211019055040 44 157 4.0 8.0 0.00 0.38 0.38 87 1010.6
20211019054615 44 144 4.0 7.0 0.00 0.38 0.38 87 1010.6
20211019054112 44 147 4.0 6.0 0.00 0.38 0.38 88 1010.4
20211019053610 44 138 3.0 5.0 0.00 0.38 0.38 88 1010.3
20211019053110 44 141 4.0 7.0 0.00 0.38 0.38 87 1010.1
20211019052614 44 125 3.0 4.0 0.00 0.38 0.38 87 1009.9
20211019052111 44 143 3.0 5.0 0.00 0.38 0.38 87 1009.6
20211019051613 44 144 3.0 5.0 0.00 0.38 0.38 87 1009.6
20211019051116 44 133 2.0 4.0 0.00 0.38 0.38 87 1009.6
20211019050612 44 159 3.0 5.0 0.00 0.38 0.38 86 1009.8
20211019050112 44 126 2.0 3.0 0.00 0.38 0.38 86 1009.9
20211019045614 44 125 3.0 5.0 0.00 0.38 0.38 86 1009.9
20211019045113 44 145 3.0 4.0 0.00 0.38 0.38 85 1009.9
20211019044616 44 132 2.0 3.0 0.00 0.38 0.38 86 1010.0
20211019044112 44 129 3.0 5.0 0.00 0.38 0.38 85 1010.0
20211019043615 44 141 3.0 5.0 0.00 0.38 0.38 85 1010.1
20211019043110 44 107 3.0 6.0 0.00 0.38 0.38 85 1010.2
20211019042612 44 154 3.0 5.0 0.00 0.38 0.38 85 1010.1
20211019042113 44 145 4.0 7.0 0.00 0.38 0.38 84 1010.0
20211019041613 44 164 4.0 6.0 0.00 0.38 0.38 83 1009.8
20211019041113 44 129 2.0 3.0 0.00 0.38 0.38 84 1009.5
20211019040613 44 131 2.0 3.0 0.00 0.38 0.38 83 1009.4
20211019040111 44 117 2.0 3.0 0.00 0.38 0.38 83 1009.3
20211019035610 44 114 3.0 3.0 0.00 0.38 0.38 82 1009.1
20211019035147 44 114 3.0 5.0 0.00 0.38 0.38 83 1009.0
20211019034611 44 102 2.0 3.0 0.00 0.38 0.38 84 1009.0
20211019034110 44 96 3.0 3.0 0.00 0.38 0.38 83 1009.1
20211019033618 44 109 3.0 3.0 0.00 0.38 0.38 84 1009.1
20211019033115 44 109 3.0 5.0 0.00 0.38 0.38 84 1009.1
20211019032613 44 84 4.0 5.0 0.00 0.38 0.38 84 1009.0
20211019032114 44 101 4.0 5.0 0.00 0.38 0.38 84 1008.8
20211019031612 44 104 2.0 3.0 0.00 0.38 0.38 83 1009.0
20211019031144 44 123 3.0 5.0 0.00 0.38 0.38 83 1009.0
20211019030614 44 88 4.0 5.0 0.00 0.38 0.38 82 1009.1
20211019030113 44 129 1.0 3.0 0.00 0.38 0.38 81 1009.3
20211019025613 45 102 2.0 3.0 0.00 0.38 0.38 80 1009.4
20211019025114 45 159 1.0 1.0 0.00 0.38 0.38 80 1009.5
20211019024615 45 236 2.0 3.0 0.00 0.38 0.38 79 1009.3
20211019024113 45 320 1.0 3.0 0.00 0.38 0.38 80 1009.2
20211019023614 45 243 3.0 3.0 0.00 0.38 0.38 79 1009.2
20211019023112 44 231 3.0 3.0 0.00 0.38 0.38 79 1009.0
20211019022610 44 242 2.0 4.0 0.00 0.38 0.38 80 1008.7
20211019022110 44 37 1.0 3.0 0.00 0.38 0.38 80 1008.6
20211019021610 44 13 1.0 2.0 0.00 0.38 0.38 78 1008.5
20211019021115 44 231 3.0 4.0 0.00 0.38 0.38 79 1008.3
20211019020712 44 225 3.0 5.0 0.00 0.38 0.38 80 1008.0
20211019020114 44 216 3.0 3.0 0.00 0.38 0.38 80 1007.8
20211019015613 44 230 3.0 4.0 0.00 0.38 0.38 80 1007.7
20211019015115 44 196 1.0 2.0 0.00 0.38 0.38 80 1007.6
20211019014611 44 203 3.0 5.0 0.00 0.38 0.38 78 1007.3
20211019014113 44 238 2.0 3.0 0.00 0.38 0.38 80 1007.3
20211019013711 44 102 1.0 2.0 0.00 0.38 0.38 82 1007.6
20211019013115 44 123 2.0 3.0 0.00 0.38 0.38 80 1007.7
20211019012615 44 133 2.0 2.0 0.00 0.38 0.38 81 1007.7
20211019012112 44 175 3.0 5.0 0.00 0.38 0.38 80 1007.9
20211019011615 44 186 5.0 6.0 0.00 0.38 0.38 79 1007.9
20211019011113 44 218 4.0 6.0 0.00 0.38 0.38 80 1007.9
20211019010614 44 205 4.0 6.0 0.00 0.38 0.38 80 1007.8
20211019010116 44 192 4.0 7.0 0.00 0.38 0.38 81 1007.7
20211019005616 44 201 4.0 6.0 0.00 0.38 0.38 82 1007.6
20211019005113 44 190 6.0 9.0 0.00 0.38 0.38 81 1007.2
20211019004714 44 173 5.0 8.0 0.00 0.38 0.38 79 1006.9
20211019004113 44 162 6.0 11.0 0.00 0.38 0.38 79 1006.4
20211019003614 44 178 4.0 6.0 0.01 0.38 0.38 78 1005.7
20211019003112 44 135 3.0 6.0 0.01 0.38 0.38 78 1005.3
20211019002612 43 131 2.0 3.0 0.02 0.38 0.38 80 1004.9
20211019002114 43 214 3.0 5.0 0.02 0.38 0.38 83 1004.5
20211019001615 43 343 1.0 3.0 0.03 0.38 0.38 85 1004.1
20211019001110 43 273 3.0 5.0 0.04 0.38 0.38 85 1004.0
20211019000614 42 211 2.0 3.0 0.04 0.38 0.38 85 1003.8
20211019000116 42 85 3.0 4.0 0.04 0.38 0.38 85 1004.1
20211018235612 42 86 5.0 9.0 0.04 0.38 0.38 84 1004.5
20211018235112 43 76 6.0 8.0 0.05 0.38 0.38 84 1005.1
20211018234613 43 107 5.0 7.0 0.05 0.38 0.38 84 1005.5
20211018234116 44 83 6.0 8.0 0.05 0.37 0.37 88 1005.9
20211018233614 44 108 4.0 6.0 0.06 0.37 0.37 85 1006.1
20211018233118 44 150 4.0 6.0 0.05 0.37 0.37 82 1006.4
20211018232613 44 155 3.0 11.0 0.05 0.36 0.36 84 1006.7
20211018232111 45 170 5.0 8.0 0.06 0.36 0.36 83 1006.8
20211018231617 45 138 4.0 7.0 0.05 0.35 0.35 83 1006.8
20211018231115 45 154 3.0 6.0 0.05 0.34 0.34 78 1006.5
20211018230612 45 113 5.0 6.0 0.04 0.33 0.33 81 1006.3
20211018230113 45 102 4.0 5.0 0.05 0.33 0.33 80 1006.1
20211018225617 45 121 4.0 7.0 0.07 0.33 0.33 79 1006.0
20211018225114 45 104 4.0 5.0 0.10 0.33 0.33 80 1006.0
20211018224612 46 156 3.0 5.0 0.13 0.33 0.33 75 1005.9
20211018224114 46 210 5.0 6.0 0.14 0.32 0.32 76 1005.6
20211018223616 45 185 3.0 5.0 0.16 0.32 0.32 77 1005.5
20211018223113 45 201 2.0 3.0 0.19 0.32 0.32 79 1005.7
20211018222611 46 225 3.0 5.0 0.19 0.32 0.32 77 1006.1
20211018222116 46 210 2.0 4.0 0.21 0.31 0.31 79 1006.3
20211018221612 46 222 7.0 10.0 0.30 0.30 0.30 76 1006.4
20211018221112 46 247 7.0 8.0 0.29 0.29 0.29 77 1006.4
20211018220613 46 243 7.0 11.0 0.29 0.29 0.29 79 1006.5
20211018220112 46 241 8.0 10.0 0.28 0.28 0.28 79 1006.9
20211018215612 46 228 11.0 17.0 0.27 0.27 0.27 79 1007.5
20211018215114 46 224 11.0 18.0 0.25 0.25 0.25 79 990.2
20211018214611 47 224 12.0 18.0 0.23 0.23 0.23 78 990.6
20211018214113 47 226 13.0 16.0 0.21 0.21 0.21 78 991.7
20211018213614 48 226 14.0 20.0 0.19 0.19 0.19 76 993.1
20211018213111 50 224 18.0 29.0 0.16 0.16 0.16 71 995.4
20211018212621 51 223 29.0 42.0 0.13 0.13 0.13 67 997.6
20211018212114 53 226 31.0 49.0 0.11 0.11 0.11 60 1001.4
20211018211611 55 225 22.0 41.0 0.06 0.06 0.06 53 1005.1
20211018211112 57 217 9.0 16.0 0.00 0.00 0.00 43 1006.9
20211018210615 58 227 12.0 18.0 0.00 0.00 0.00 38 1007.8
20211018210114 59 224 12.0 23.0 0.00 0.00 0.00 37 1008.3
20211018205613 59 233 5.0 7.0 0.00 0.00 0.00 36 1008.6
20211018205113 59 249 3.0 5.0 0.00 0.00 0.00 37 1009.0
20211018204611 59 253 4.0 5.0 0.00 0.00 0.00 38 1009.6
20211018204215 59 244 5.0 7.0 0.00 0.00 0.00 39 1010.3
20211018203615 59 231 4.0 5.0 0.00 0.00 0.00 39 1011.0
20211018203110 59 217 4.0 7.0 0.00 0.00 0.00 39 1012.0
20211018202612 59 245 2.0 4.0 0.00 0.00 0.00 40 1013.1
20211018202112 59 222 2.0 5.0 0.00 0.00 0.00 39 1014.2
20211018201611 59 216 4.0 7.0 0.00 0.00 0.00 38 1015.5
20211018201113 60 213 3.0 5.0 0.00 0.00 0.00 38 1017.0
20211018200612 60 177 3.0 5.0 0.00 0.00 0.00 37 1018.1
20211018200111 60 144 3.0 6.0 0.00 0.00 0.00 37 1019.0
20211018195612 60 141 5.0 8.0 0.00 0.00 0.00 37 1020.6
20211018195110 60 175 3.0 5.0 0.00 0.00 0.00 36 1022.4
20211018194615 61 179 4.0 7.0 0.00 0.00 0.00 36 1023.0
20211018194111 60 165 2.0 5.0 0.00 0.00 0.00 37 1023.4
20211018193626 60 119 2.0 6.0 0.00 0.00 0.00 37 1023.3
20211018193114 60 137 2.0 4.0 0.00 0.00 0.00 39 1022.2
20211018192629 59 184 3.0 7.0 0.00 0.00 0.00 39 1020.6
20211018192111 59 148 3.0 5.0 0.00 0.00 0.00 39 1019.8
20211018191611 59 156 4.0 9.0 0.00 0.00 0.00 38 1019.3
20211018191115 59 147 3.0 6.0 0.00 0.00 0.00 40 1019.0
20211018190614 59 152 5.0 9.0 0.00 0.00 0.00 39 1018.8
20211018190110 58 154 3.0 4.0 0.00 0.00 0.00 42 1018.6
20211018185617 58 140 6.0 9.0 0.00 0.00 0.00 42 1018.7
20211018185113 58 155 5.0 7.0 0.00 0.00 0.00 43 1018.9
20211018184613 58 134 2.0 5.0 0.00 0.00 0.00 44 1019.0
20211018184115 57 167 3.0 7.0 0.00 0.00 0.00 45 1019.6
20211018183611 57 148 4.0 8.0 0.00 0.00 0.00 45 1019.9
20211018183113 57 157 5.0 7.0 0.00 0.00 0.00 44 1019.9
20211018182616 57 156 3.0 6.0 0.00 0.00 0.00 46 1019.3
20211018182113 57 153 6.0 10.0 0.00 0.00 0.00 45 1018.5
20211018181611 56 182 3.0 7.0 0.00 0.00 0.00 47 1017.3
20211018181114 56 154 4.0 7.0 0.00 0.00 0.00 46 1016.7
20211018180611 56 169 4.0 7.0 0.00 0.00 0.00 47 1016.4
20211018180113 55 181 4.0 6.0 0.00 0.00 0.00 48 1016.2
20211018175612 55 185 5.0 8.0 0.00 0.00 0.00 47 1015.9
20211018175114 55 165 5.0 10.0 0.00 0.00 0.00 48 1015.8
20211018174614 55 163 5.0 9.0 0.00 0.00 0.00 49 1015.7
20211018174115 55 143 3.0 6.0 0.00 0.00 0.00 49 1015.7
20211018173617 55 161 3.0 5.0 0.00 0.00 0.00 50 1015.5
20211018173218 55 189 4.0 6.0 0.00 0.00 0.00 49 1015.3
20211018172617 55 148 3.0 6.0 0.00 0.00 0.00 50 1015.0
20211018172110 55 172 4.0 8.0 0.00 0.00 0.00 49 1014.8
20211018171617 54 162 3.0 7.0 0.00 0.00 0.00 50 1014.8
20211018171114 54 171 5.0 7.0 0.00 0.00 0.00 50 1014.8
20211018170615 54 174 5.0 7.0 0.00 0.00 0.00 50 1014.8
20211018170111 54 176 5.0 7.0 0.00 0.00 0.00 51 1014.5
20211018165616 54 169 5.0 7.0 0.00 0.00 0.00 50 1014.0
20211018165114 54 172 6.0 8.0 0.00 0.00 0.00 51 1013.4
20211018164642 53 155 4.0 6.0 0.00 0.00 0.00 52 1013.1
20211018164126 53 152 3.0 5.0 0.00 0.00 0.00 53 1012.7
20211018163615 53 160 3.0 5.0 0.00 0.00 0.00 53 1012.5
20211018163111 53 156 4.0 6.0 0.00 0.00 0.00 54 1012.3
20211018162617 53 162 4.0 7.0 0.00 0.00 0.00 53 1012.0
20211018162113 53 171 3.0 4.0 0.00 0.00 0.00 53 1011.9
20211018161613 52 155 4.0 8.0 0.00 0.00 0.00 54 1011.6
20211018161111 52 155 4.0 7.0 0.00 0.00 0.00 54 1011.2
20211018160616 52 152 4.0 7.0 0.00 0.00 0.00 55 1011.0
20211018160112 52 170 4.0 8.0 0.00 0.00 0.00 56 1010.7
20211018155613 52 151 4.0 8.0 0.00 0.00 0.00 56 1010.6
20211018155115 52 163 3.0 4.0 0.00 0.00 0.00 55 1010.2
20211018154611 52 178 4.0 6.0 0.00 0.00 0.00 55 1009.9
20211018154116 51 160 2.0 4.0 0.00 0.00 0.00 55 1009.6
20211018153612 51 165 3.0 6.0 0.00 0.00 0.00 56 1009.4
20211018153111 51 137 3.0 6.0 0.00 0.00 0.00 57 1009.5
20211018152616 51 135 3.0 5.0 0.00 0.00 0.00 58 1009.8
20211018152114 51 139 4.0 7.0 0.00 0.00 0.00 58 1009.9
20211018151612 51 176 3.0 4.0 0.00 0.00 0.00 57 1009.9
20211018151114 51 174 3.0 5.0 0.00 0.00 0.00 55 1009.8
20211018150613 52 198 3.0 5.0 0.00 0.00 0.00 54 1009.8
20211018150113 52 158 3.0 6.0 0.00 0.00 0.00 53 1009.8
20211018145629 52 136 2.0 4.0 0.00 0.00 0.00 52 1009.9
20211018145116 52 171 5.0 8.0 0.00 0.00 0.00 51 1009.8
20211018144609 52 185 5.0 8.0 0.00 0.00 0.00 51 1009.6
20211018144115 52 213 6.0 9.0 0.00 0.00 0.00 50 1009.3
20211018143610 52 202 4.0 9.0 0.00 0.00 0.00 50 1008.8
20211018143116 51 196 3.0 4.0 0.00 0.00 0.00 51 1008.5
20211018142713 51 190 4.0 6.0 0.00 0.00 0.00 51 1008.0
20211018142114 51 216 4.0 8.0 0.00 0.00 0.00 51 1007.6
20211018141612 51 188 4.0 6.0 0.00 0.00 0.00 51 1007.0
20211018141114 51 209 5.0 10.0 0.00 0.00 0.00 52 1006.5
20211018140617 51 186 5.0 8.0 0.00 0.00 0.00 54 1006.2
20211018140116 51 218 5.0 7.0 0.00 0.00 0.00 55 1006.2
20211018135609 51 216 4.0 6.0 0.00 0.00 0.00 56 1006.2
20211018135213 51 181 4.0 7.0 0.00 0.00 0.00 57 1006.3
20211018134614 51 197 4.0 6.0 0.00 0.00 0.00 56 1006.4
20211018134112 51 211 4.0 7.0 0.00 0.00 0.00 55 1006.7
20211018133613 51 183 5.0 7.0 0.00 0.00 0.00 54 1007.1
20211018133112 51 211 4.0 5.0 0.00 0.00 0.00 53 1007.5
20211018132614 51 194 6.0 10.0 0.00 0.00 0.00 52 1007.6
20211018132112 52 217 6.0 7.0 0.00 0.00 0.00 52 1007.8
20211018131617 52 204 5.0 7.0 0.00 0.00 0.00 51 1007.9
20211018131111 52 206 5.0 7.0 0.00 0.00 0.00 50 1008.0
20211018130646 52 198 5.0 9.0 0.00 0.00 0.00 49 1008.0
20211018130144 52 208 5.0 7.0 0.00 0.00 0.00 49 1007.6
20211018125615 52 171 4.0 6.0 0.00 0.00 0.00 49 1007.0
20211018125109 52 167 5.0 8.0 0.00 0.00 0.00 50 1006.2
20211018124616 52 159 3.0 6.0 0.00 0.00 0.00 51 1005.6
20211018124114 51 155 3.0 6.0 0.00 0.00 0.00 51 1005.2
20211018123612 51 161 3.0 8.0 0.00 0.00 0.00 53 1004.7
20211018123113 51 158 4.0 5.0 0.00 0.00 0.00 54 1004.4
20211018122611 51 151 4.0 7.0 0.00 0.00 0.00 55 1004.3
20211018122112 51 146 3.0 6.0 0.00 0.00 0.00 55 1004.0
20211018121611 51 169 4.0 6.0 0.00 0.00 0.00 56 1003.6
20211018121111 51 157 5.0 7.0 0.00 0.00 0.00 57 1003.1
20211018120614 51 148 3.0 5.0 0.00 0.00 0.00 55 1002.8
20211018120112 51 158 4.0 7.0 0.00 0.00 0.00 54 1002.8
20211018115614 51 145 4.0 7.0 0.00 0.00 0.00 54 1002.8
20211018115113 51 149 3.0 5.0 0.00 0.00 0.00 54 1002.8
20211018114613 51 145 3.0 4.0 0.00 0.00 0.00 54 1003.0
20211018114112 51 154 2.0 5.0 0.00 0.00 0.00 53 1003.1
20211018113611 52 145 3.0 5.0 0.00 0.00 0.00 52 1003.1
20211018113113 51 166 3.0 5.0 0.00 0.00 0.00 53 1002.9
20211018112610 51 158 3.0 5.0 0.00 0.00 0.00 54 1002.5
20211018112117 51 159 4.0 6.0 0.00 0.00 0.00 54 1002.7
20211018111644 52 149 3.0 6.0 0.00 0.00 0.00 54 1002.9
20211018111114 52 153 4.0 9.0 0.00 0.00 0.00 53 1002.9
20211018110613 52 154 3.0 5.0 0.00 0.00 0.00 54 1003.1
20211018110116 52 156 3.0 5.0 0.00 0.00 0.00 53 1003.6
20211018105612 52 139 3.0 4.0 0.00 0.00 0.00 52 1004.0
20211018105144 53 172 3.0 4.0 0.00 0.00 0.00 52 1004.7
20211018104612 53 157 3.0 4.0 0.00 0.00 0.00 52 1005.4
20211018104115 53 155 4.0 7.0 0.00 0.00 0.00 51 1006.1
20211018103615 54 152 4.0 6.0 0.00 0.00 0.00 50 1006.5
20211018103111 54 154 4.0 7.0 0.00 0.00 0.00 48 1006.9
20211018102613 54 151 3.0 6.0 0.00 0.00 0.00 47 1007.0
20211018102113 54 173 6.0 11.0 0.00 0.00 0.00 47 1006.9
20211018101614 54 187 6.0 11.0 0.00 0.00 0.00 46 1006.2
20211018101116 54 139 4.0 8.0 0.00 0.00 0.00 48 1006.2
20211018100612 54 163 6.0 9.0 0.00 0.00 0.00 49 1005.9
20211018100114 54 183 6.0 10.0 0.00 0.00 0.00 48 1005.4
20211018095613 53 166 7.0 14.0 0.00 0.00 0.00 49 1004.6
20211018095110 53 156 4.0 9.0 0.00 0.00 0.00 51 1004.3
20211018094616 53 157 4.0 6.0 0.00 0.00 0.00 51 1004.4
20211018094110 53 159 5.0 7.0 0.00 0.00 0.00 51 1004.5
20211018093615 53 155 6.0 9.0 0.00 0.00 0.00 51 1004.9
20211018093113 54 168 4.0 7.0 0.00 0.00 0.00 51 1005.5
20211018092616 54 151 6.0 10.0 0.00 0.00 0.00 50 1006.2
20211018092110 54 150 6.0 10.0 0.00 0.00 0.00 49 1006.8
20211018091613 55 166 7.0 14.0 0.00 0.00 0.00 48 1007.3
20211018091112 55 151 4.0 7.0 0.00 0.00 0.00 47 1007.9
20211018090611 55 160 6.0 13.0 0.00 0.00 0.00 46 1008.0
20211018090113 56 179 7.0 11.0 0.00 0.00 0.00 45 1008.2
20211018085611 56 162 7.0 13.0 0.00 0.00 0.00 46 1008.4
20211018085113 56 178 5.0 10.0 0.00 0.00 0.00 45 1008.5
20211018084615 56 169 7.0 12.0 0.00 0.00 0.00 45 1008.4
20211018084114 56 173 6.0 9.0 0.00 0.00 0.00 45 1008.0
20211018083612 56 180 5.0 9.0 0.00 0.00 0.00 46 1007.6
20211018083112 56 177 5.0 8.0 0.00 0.00 0.00 47 1007.5